New Orleans, LA

9:41 PM CDT on October 22, 2017 (GMT -0500)
New Orleans International

Weather History for KMSY - October, 2011

Change the Weather History Date:

Friday, October 21, 2011

  Actual Average Record
Temperature  
Mean Temperature 60 °F -  
Max Temperature 73 °F 79 °F 90 °F (1979)
Min Temperature 48 °F 58 °F 36 °F (1964)
Degree Days  
Heating Degree Days 4    
Growing Degree Days 10 (Base 50)    
Moisture  
Dew Point 39 °F    
Average Humidity 49    
Maximum Humidity 74    
Minimum Humidity 20    
Precipitation  
Precipitation 0.00 in - - ()
Sea Level Pressure  
Sea Level Pressure 30.20 in    
Wind  
Wind Speed 1 mph (North)    
Max Wind Speed 8 mph    
Max Gust Speed -    
Visibility 10 miles    
Events      
Averages and records for this station are not official NWS values.
T = Trace of Precipitation, MM = Missing Value Source: NWS Daily Summary

Daily Weather History Graph

Daily Weather History Graph

Search for Another Location

Airport or City:

Trip Planner

Search our weather history database for the weather conditions in past years. The results will help you decide how hot, cold, wet, or windy it might be!

Date:

Astronomy

Oct. 21, 2011 Rise Set
Actual Time 7:06 AM CDT 6:24 PM CDT
Civil Twilight 6:42 AM CDT 6:48 PM CDT
Nautical Twilight 6:14 AM CDT 7:16 PM CDT
Astronomical Twilight 5:46 AM CDT 7:44 PM CDT
Moon 1:22 AM CDT (10/21) 2:45 PM CDT (10/21)
Length of Visible Light 12h 05m
Length of Day
11h 17m
Waning Crescent, 33% of the Moon is Illuminated
Oct 21
Waning Crescent
Oct 26
New
Nov 2
First Quarter
Nov 10
Full
Nov 18
Last Quarter

Hourly Weather History & Observations

Time (CDT) Temp. Dew Point Humidity Pressure Visibility Wind Dir Wind Speed Gust Speed Precip Events Conditions
12:53 AM 54.0 °F 36.0 °F 51% 30.16 in 10.0 mi Calm Calm - N/A   Clear
1:53 AM 53.1 °F 41.0 °F 64% 30.17 in 10.0 mi Calm Calm - N/A   Clear
2:53 AM 50.0 °F 39.9 °F 68% 30.17 in 10.0 mi Calm Calm - N/A   Clear
3:53 AM 50.0 °F 41.0 °F 71% 30.18 in 10.0 mi Calm Calm - N/A   Clear
4:53 AM 48.9 °F 39.9 °F 71% 30.19 in 10.0 mi Calm Calm - N/A   Clear
5:53 AM 50.0 °F 41.0 °F 71% 30.20 in 10.0 mi Calm Calm - N/A   Clear
6:53 AM 50.0 °F 41.0 °F 71% 30.21 in 10.0 mi Calm Calm - N/A   Clear
7:53 AM 51.1 °F 43.0 °F 74% 30.22 in 10.0 mi Calm Calm - N/A   Clear
8:53 AM 61.0 °F 50.0 °F 67% 30.24 in 9.0 mi Calm Calm - N/A   Clear
9:53 AM 66.9 °F 46.9 °F 49% 30.25 in 10.0 mi North 5.8 mph - N/A   Clear
10:53 AM 69.1 °F 41.0 °F 36% 30.26 in 10.0 mi North 6.9 mph - N/A   Clear
11:53 AM 70.0 °F 37.0 °F 30% 30.25 in 10.0 mi North 5.8 mph - N/A   Clear
12:53 PM 72.0 °F 28.9 °F 20% 30.23 in 10.0 mi North 8.1 mph - N/A   Clear
1:53 PM 72.0 °F 30.9 °F 22% 30.20 in 10.0 mi NNW 5.8 mph - N/A   Clear
2:53 PM 73.0 °F 33.1 °F 23% 30.19 in 10.0 mi North 4.6 mph - N/A   Clear
3:53 PM 73.9 °F 33.1 °F 22% 30.17 in 10.0 mi NW 5.8 mph - N/A   Clear
4:53 PM 73.9 °F 33.1 °F 22% 30.17 in 10.0 mi NNW 3.5 mph - N/A   Clear
5:53 PM 72.0 °F 33.1 °F 24% 30.16 in 10.0 mi Calm Calm - N/A   Clear
6:53 PM 66.9 °F 35.1 °F 31% 30.16 in 10.0 mi Calm Calm - N/A   Clear
7:53 PM 64.0 °F 39.0 °F 40% 30.17 in 10.0 mi Calm Calm - N/A   Clear
8:53 PM 59.0 °F 46.0 °F 62% 30.18 in 10.0 mi Calm Calm - N/A   Clear
9:53 PM 60.1 °F 45.0 °F 57% 30.19 in 10.0 mi Calm Calm - N/A   Clear
10:53 PM 57.9 °F 46.0 °F 65% 30.19 in 10.0 mi Calm Calm - N/A   Clear
11:53 PM 57.9 °F 45.0 °F 62% 30.18 in 10.0 mi Calm Calm - N/A   Clear